SHIJIAN 6 04B (SJ-6 04B)

导读 | 星芒AI

SHIJIAN 6 04B(SJ-6 04B)是中国研制的一颗实验通信卫星,属于实践六号系列。该卫星主要用于空间科学实验和通信技术验证,搭载多种有效载荷,以测试新型通信设备和空间环境适应性。它采用东方红三号平台,设计寿命为5年。SJ-6 04B于2007年发射,运行在太阳同步轨道,为中国后续卫星通信和遥感技术的发展提供了宝贵的数据和经验。

基本信息
目录编号:
37180
目录名称:
SHIJIAN 6 04B (SJ-6 04B)
国际标识:
2010-051B
轨道中心:
EARTH
卫星名称:
SHIJIAN 6 04B (SJ-6 04B)
卫星全名:
--
卫星状态:
在轨 (已飞行5502 天)
发射日期:
2010-10-06 UTC
国别 :
中国 (CN)
星等 :
--
轨道信息
数据来源 国际轨道数据
星历时间: 2025-10-28T23:55:50+0800
17小时前
查看轨道信息
半长轴: 6949.218km
偏心率: 0.0010307
轨道倾角: 97.867°
近地点辐角 11.641°
升交点赤经 299.827°
平近点角 348.505°
近地点: 563.92km
远地点: 578.246km
周期: 96.087分钟
每日圈数: 14.986454
详细信息
使用方式:
暂无
2D轨道图
3D轨道图
轨道高度分析图
轨道倾角分析图
轨道综合分析图
查看轨道综合分析图